User: anonymous   Login
Location: Carella
(45.8167°N, 9.2667°E)
Time: 15:55:19
(UTC+00:00)
Language:

STARLINK-1090 - Orbit

View from above orbital plane
View from above orbital plane
View from above satellite
View from above satellite

Ground track
Ground track

The orbit data is extracted from the following two-line orbital elements,

1 44968U 20001BG  20196.58334491 -.00000268  00000-0  76884-6 0  9995
2 44968  53.0001 212.7733 0001376  86.7911  86.3298 15.05582357 29318
Epoch (UTC): 14 July 2020 14:00:01
Eccentricity: 0.0001376
inclination: 53.0001°
perigee height: 549 km
apogee height: 550 km
right ascension of ascending node: 212.7733°
argument of perigee: 86.7911°
revolutions per day: 15.05582357
mean anomaly at epoch: 86.3298°
orbit number at epoch: 2931

The dashed part of the orbit path shows where the satellite is in the earth's shadow,  

DLR